Terminal Aerodrome Forecast
Issued by NWS

Home | Current Version | Previous Version | Graphics & Text | Print | Product List | Glossary On
Versions: 1 2 3 4 5 6 7 8 9 10 11 12 13 14 15
735
FTUS43 KMPX 131612 AAA
TAFRWF
TAF AMD
KRWF 131612Z 1316/1412 14006KT 4SM -SN SCT015 OVC045
      TEMPO 1316/1317 1SM -SN OVC015
     FM131800 14009KT P6SM SCT025 OVC040
     FM140100 16007KT P6SM SKC=

USA.gov is the U.S. government's official web portal to all federal, state and local government web resources and services.